Regional Weather Roundup
Issued by NWS

Home | Current Version | Previous Version | Graphics & Text | Print | Product List | Glossary On
Versions: 1 2 3 4 5 6 7 8 9 10 11 12 13 14 15 16 17 18 19 20 21 22 23 24 25 26 27 28 29 30 31 32 33 34 35 36 37 38 39 40 41 42 43 44 45 46 47 48 49 50
000
ASUS43 KTOP 260359
RWRKS

WEATHER ROUNDUP FOR KANSAS
NATIONAL WEATHER SERVICE GOODLAND KS
1000 PM CST SUN JAN 25 2015

NOTE:  "FAIR" INDICATES FEW OR NO CLOUDS BELOW 12,000 FEET WITH NO
SIGNIFICANT WEATHER AND/OR OBSTRUCTIONS TO VISIBILITY.

KSZ001>006-013>018-027>032-041>047-260500-
NORTHWEST KANSAS

CITY           SKY/WX    TMP DP  RH WIND       PRES   REMARKS
GOODLAND       CLEAR     36  30  79 W10       30.12F WCI  28
HAYS           CLEAR     30  18  59 CALM      30.11F
HILL CITY      MOCLDY    31  21  66 W3        30.11S
RUSSELL        CLEAR     29  24  82 S9        30.10R
$$

KSZ061>065-074>080-084>089-260500-
SOUTHWEST KANSAS

CITY           SKY/WX    TMP DP  RH WIND       PRES   REMARKS
DODGE CITY     CLEAR     35  20  54 SW3       30.13S
ELKHART          N/A     41  29  62 W7          N/A
GARDEN CITY    FAIR      36  21  54 SW5       30.13F
GREAT BEND     CLEAR     27  19  74 CALM      30.13S
LIBERAL        CLEAR     34  23  64 W6        30.17S
$$

KSZ066>073-081>083-090>101-260500-
SOUTHEAST KANSAS

CITY           SKY/WX    TMP DP  RH WIND       PRES   REMARKS
CHANUTE        CLOUDY    38  31  76 NW5       30.12S
COFFEYVILLE    CLEAR     35  29  78 NW6       30.13S
HUTCHINSON     CLEAR     25  22  88 W3        30.12S
MEDICINE LODGE   N/A     36  25  64 CALM      30.13S
NEWTON         CLEAR     32  25  74 NW3       30.13S
PARSONS        MOCLDY    36  30  79 NW3       30.13S
WICHITA INTL   CLEAR     30  25  81 CALM      30.12F
WICHITA JABRA  CLEAR     34  27  75 NW5       30.12S
WICHITA MCCONL CLEAR     36  28  74 N5        30.13S
WINFIELD       FAIR      33  26  75 CALM      30.14S
$$

KSZ007>012-019>026-033>040-048>060-102>105-260500-
NORTHEAST KANSAS

CITY           SKY/WX    TMP DP  RH WIND       PRES   REMARKS
CONCORDIA      CLEAR     30  28  92 S3        30.09F
EMPORIA        CLEAR     32  28  85 W3        30.12S
LAWRENCE       CLOUDY    29  26  89 N3        30.13R
MANHATTAN      CLEAR     27  25  92 CALM      30.11F
OLATHE IND     CLEAR     32  29  88 NW7       30.12R
OLATHE EXE     CLEAR     34  29  82 NW5       30.10R
SALINA         FAIR      30  26  85 SW5       30.12S
TOPEKA BILLARD CLOUDY    36  27  69 CALM      30.11F
TOPEKA FORBES  PTCLDY    37  27  67 N5        30.10S
$$


USA.gov is the U.S. government's official web portal to all federal, state and local government web resources and services.